Starlink 31951

operational
NORAD ID: 59890 Int'l Des: 2024-100 Owner: SPXS Country: US Constellation: starlink
LEOCIRCULAR

关于 Starlink 31951

正在加载描述...

实时位置

正在加载3D地球...

即将过境

高度历史

Altitude vs Time

uPlot chart will show altitude changes over time

两行轨道根数

1 59890U 24100F 25306.47631403 .00001719 00000-0 71991-4 0 9991
2 59890 43.0002 123.6279 0001073 270.7198 89.3531 15.27569322 81603
Epoch: Nov 2, 2025 • Age: 33 hours

当前状态

高度 485.0 km
速度 7.62 km/s
星下点 -12.55°S, 114.23°E
发射日期 May 28, 2024
运行时间 1.4 years
类型 internet

技术详情

分类 Payload
质量 730.00 kg
干质量 700.00 kg
总质量 730.00 kg
长度 0.30 m
直径 4.10 m
跨度 29.00 m
形状 Box + pan
制造商 SPXS
平台类型 Starlink V2M
阶段状态 In Orbit
所有者/国家 SPXS/US

大型星座

Loading constellations...